FENGYUN 1C DEB

Satellite information

Favourite Embed

Satellite Type and Status

DEBRISIN ORBIT

Key statistics

Satellite FENGYUN 1C DEB at a glance.

Uptime

9659

Days in orbit

Revolutions

≈ 13.9

Per day

Orbit

SSO

Sun Synchronous Orbit

Inclination

98.4

Latest

Satellite identification and parameters

Extended collection of information and parameters for FENGYUN 1C DEB.

Object identification

Identified? True

Debris? True

Object name: FENGYUN 1C DEB

International designator: 1999-025BSS

Object number (NORAD): 31386

Object ID (CCSDS): 31386

Country: PEOPLES REPUBLIC OF CHINA (PRC)

Current information (Y/N): Y

RCS size: SMALL

Orbital parameters

Period: 103.924 minutes

Inclination: 98.4445 deg

SMA: 7322.15 km

Apoapsis: 1090.254 km

Periapsis: 797.775 km

RAAN: 311.3662 deg

Eccentricy: 0.0199722

Argument of periapsis: 77.7486 deg

Mean anomaly: 284.5958 deg

Mean motion: 13.85622324 rev/day

Mean motion (dot): 0.000039 rev/day2

B* drag term: 0.0029461 1/REarth

Two-line elements (TLE)

Creation date: Oct. 18, 2025, 8:56 a.m.

Reference frame: TEME

Reference center: EARTH

Epoch: Oct. 18, 2025, 12:19 a.m. UTC

TLE line 0: 0 FENGYUN 1C DEB

TLE line 1: 1 31386U 99025BSS 25291.01387889 .00003900 00000-0 29461-2 0 9995

TLE line 2: 2 31386 98.4445 311.3662 0199722 77.7486 284.5958 13.85622324930906

Live tracking on map

Real-time ground track for satellite FENGYUN 1C DEB.

In-orbit conjunctions

A list of the most updated potential collisions computed for object FENGYUN 1C DEB.

Target Orbit TCA Probability of collision Miss distance Type
CZ-6A DEB LEO 2025-06-11 23:17:24 0.0004003699 73.0 (m) DEBRIS
NOAA 16 DEB SSO 2024-11-12 00:01:18 0.0003722917 400.0 (m) DEBRIS

Associated space launch

Chinese polar orbiting meteorological satellite

FENGYUN 1C DEB was lifted into orbit during the mission ‘Long March 4B | Feng Yun 1C’, on board a Long March 4B space rocket.

The launch took place on May 10, 1999, 1:33 a.m. from Launch Complex 7.

For more information about the launch, click the button.

Launch to space Long March 4B | Feng Yun 1C
Long March 4B | Feng Yun 1C

Agency: N/A

Status: Launch Successful

Launch date: May 10, 1999, 1:33 a.m. UTC

Rocket: Long March 4B

Launch pad: Launch Complex 7

Location: Taiyuan Satellite Launch Center, People's Republic of China

...

Latest news about this satellite

There are no fresh news available about this satellite. Check back as we update our databases every day.


Newsletter sign-up

Weekly statistics, charts and insights to help you stay on top of the space industry.